カタログに戻る

COSMOS 1349

運用中軍事PO
NORAD 13127·PAYLOAD·🇷🇺 Russia

打ち上げ Apr 8, 1982 から Plesetsk Cosmodrome

Loading…

次のパス (今後24時間)

TLE

最新Source: Space-Track

元期: Sep 14, 2026, 21:48 UTC

1 13127U 82030A   26257.90845073  .00000033  00000-0  18227-4 0  9995
2 13127  82.9252  95.7818 0031450 145.1153 281.9009 13.74033882227633

AllMySatでCOSMOS 1349をリアルタイム追跡

Download on the App Store